Tracking 29892 objects as of 21-Nov-2024
HD Live streaming from Space Station
objects crossing your sky now

STARLINK-1349

Track STARLINK-1349 now!
10-day predictions
STARLINK-1349 is classified as:


NORAD ID: 45587
Int'l Code: 2020-025BJ
Perigee: 553.2 km
Apogee: 555.2 km
Inclination: 53.1 °
Period: 95.6 minutes
Semi major axis: 6925 km
RCS: Unknown
Launch date: April 22, 2020
Source: United States (US)
Launch site: AIR FORCE EASTERN TEST RANGE (AFETR)
Your satellite tracking list
Your tracking list is empty




NASA's NSSDC Master Catalog

Two Line Element Set (TLE):
1 45587U 20025BJ  24325.26835254  .00021919  00000-0  14841-2 0  9991
2 45587  53.0535  46.3778 0001412  79.7394 280.3754 15.06442426254008
Source of the keplerian elements: AFSPC